Time,TemperatureF,DewpointF,PressureIn,WindDirection,WindDirectionDegrees,WindSpeedMPH,WindSpeedGustMPH,Humidity,HourlyPrecipIn,Conditions,Clouds,dailyrainin,SoftwareType,DateUTC
2013-09-12 00:01:00,63.3,62.7,30.09,NW,306,1.0,2.0,98,0.00,,---,0.00,VWS V14.01,2013-09-12 04:01:00,
2013-09-12 00:02:00,63.3,62.7,30.09,NW,307,2.0,2.0,98,0.00,,---,0.00,VWS V14.01,2013-09-12 04:02:00,
2013-09-12 00:07:00,63.1,62.2,30.09,WNW,297,1.0,2.0,97,0.00,,---,0.00,VWS V14.01,2013-09-12 04:07:00,
2013-09-12 00:12:00,63.0,62.4,30.09,WNW,297,1.0,1.0,98,0.00,,---,0.00,VWS V14.01,2013-09-12 04:12:00,
2013-09-12 00:17:00,63.0,62.4,30.09,WNW,297,0.0,2.0,98,0.00,,---,0.00,VWS V14.01,2013-09-12 04:17:00,
2013-09-12 00:22:00,63.0,62.4,30.09,WNW,297,1.0,1.0,98,0.00,,---,0.00,VWS V14.01,2013-09-12 04:22:00,
2013-09-12 00:27:00,62.9,62.3,30.09,WNW,297,1.0,1.0,98,0.00,,---,0.00,VWS V14.01,2013-09-12 04:27:00,
2013-09-12 00:32:00,62.6,62.0,30.09,WNW,297,1.0,1.0,98,0.00,,---,0.00,VWS V14.01,2013-09-12 04:32:00,
2013-09-12 00:37:00,62.5,62.2,30.08,WNW,296,2.0,2.0,99,0.00,,---,0.00,VWS V14.01,2013-09-12 04:37:00,
2013-09-12 00:42:00,62.5,62.2,30.08,WNW,295,1.0,2.0,99,0.00,,---,0.00,VWS V14.01,2013-09-12 04:42:00,
2013-09-12 00:47:00,62.4,62.1,30.08,WNW,295,0.0,1.0,99,0.00,,---,0.00,VWS V14.01,2013-09-12 04:47:00,
2013-09-12 00:52:00,62.3,62.0,30.08,WNW,295,1.0,2.0,99,0.00,,---,0.00,VWS V14.01,2013-09-12 04:52:00,
2013-09-12 00:57:00,62.2,62.2,30.08,WNW,295,1.0,2.0,100,0.00,,---,0.00,VWS V14.01,2013-09-12 04:57:00,
2013-09-12 01:02:00,62.0,62.0,30.08,WNW,295,2.0,3.0,100,0.00,,---,0.00,VWS V14.01,2013-09-12 05:02:00,
2013-09-12 01:07:00,62.0,62.0,30.07,WNW,294,2.0,2.0,100,0.00,,---,0.00,VWS V14.01,2013-09-12 05:07:00,
2013-09-12 01:12:00,62.0,62.0,30.07,WNW,293,2.0,3.0,100,0.00,,---,0.00,VWS V14.01,2013-09-12 05:12:00,
2013-09-12 01:17:00,62.0,62.0,30.07,WNW,293,3.0,3.0,100,0.00,,---,0.00,VWS V14.01,2013-09-12 05:17:00,
2013-09-12 01:22:00,62.0,62.0,30.07,WNW,293,1.0,3.0,100,0.00,,---,0.00,VWS V14.01,2013-09-12 05:22:00,
2013-09-12 01:27:00,62.2,62.2,30.07,WNW,293,2.0,2.0,100,0.00,,---,0.00,VWS V14.01,2013-09-12 05:27:00,
2013-09-12 01:32:00,62.4,62.4,30.07,West,281,1.0,2.0,100,0.00,,---,0.00,VWS V14.01,2013-09-12 05:32:00,
2013-09-12 01:37:00,62.6,62.6,30.07,WNW,299,2.0,3.0,100,0.00,,---,0.00,VWS V14.01,2013-09-12 05:37:00,
2013-09-12 01:42:00,62.6,62.6,30.07,WNW,292,1.0,2.0,100,0.00,,---,0.00,VWS V14.01,2013-09-12 05:42:00,
2013-09-12 01:47:00,62.7,62.7,30.07,WNW,293,2.0,3.0,100,0.00,,---,0.00,VWS V14.01,2013-09-12 05:47:00,
2013-09-12 01:52:00,62.8,62.8,30.07,WNW,287,3.0,3.0,100,0.00,,---,0.00,VWS V14.01,2013-09-12 05:52:00,
2013-09-12 01:57:00,62.6,62.6,30.07,WNW,289,3.0,3.0,100,0.00,,---,0.00,VWS V14.01,2013-09-12 05:57:00,
2013-09-12 02:02:00,62.2,62.2,30.07,WNW,289,3.0,3.0,100,0.00,,---,0.00,VWS V14.01,2013-09-12 06:02:00,
2013-09-12 02:07:00,61.8,61.8,30.06,WNW,289,3.0,3.0,100,0.00,,---,0.00,VWS V14.01,2013-09-12 06:07:00,
2013-09-12 02:12:00,61.8,61.8,30.06,WNW,289,1.0,2.0,100,0.00,,---,0.00,VWS V14.01,2013-09-12 06:12:00,
2013-09-12 02:17:00,62.0,62.0,30.06,WNW,289,1.0,2.0,100,0.00,,---,0.00,VWS V14.01,2013-09-12 06:17:00,
2013-09-12 02:22:00,62.3,62.3,30.06,WNW,289,2.0,2.0,100,0.00,,---,0.00,VWS V14.01,2013-09-12 06:22:00,
2013-09-12 02:27:00,62.6,62.6,30.06,WNW,288,2.0,3.0,100,0.00,,---,0.00,VWS V14.01,2013-09-12 06:27:00,
2013-09-12 02:32:00,62.8,62.8,30.06,WNW,289,2.0,3.0,100,0.00,,---,0.00,VWS V14.01,2013-09-12 06:32:00,
2013-09-12 02:37:00,62.8,62.8,30.06,WNW,289,1.0,3.0,100,0.00,,---,0.00,VWS V14.01,2013-09-12 06:37:00,
2013-09-12 02:42:00,62.7,62.7,30.06,WNW,289,1.0,1.0,100,0.00,,---,0.00,VWS V14.01,2013-09-12 06:42:00,
2013-09-12 02:47:00,62.5,62.5,30.06,WNW,289,0.0,1.0,100,0.00,,---,0.00,VWS V14.01,2013-09-12 06:47:00,
2013-09-12 02:52:00,62.4,62.4,30.06,WNW,289,1.0,2.0,100,0.00,,---,0.00,VWS V14.01,2013-09-12 06:52:00,
2013-09-12 02:57:00,62.3,62.3,30.06,NW,305,1.0,2.0,100,0.00,,---,0.00,VWS V14.01,2013-09-12 06:57:00,
2013-09-12 03:02:00,62.2,62.2,30.05,WNW,302,4.0,4.0,100,0.00,,---,0.00,VWS V14.01,2013-09-12 07:02:00,
2013-09-12 03:07:00,62.2,62.2,30.05,NNW,339,2.0,3.0,100,0.00,,---,0.00,VWS V14.01,2013-09-12 07:07:00,
2013-09-12 03:12:00,62.1,62.1,30.05,NW,311,2.0,2.0,100,0.00,,---,0.00,VWS V14.01,2013-09-12 07:12:00,
2013-09-12 03:17:00,62.0,62.0,30.05,WNW,302,1.0,2.0,100,0.00,,---,0.00,VWS V14.01,2013-09-12 07:17:00,
2013-09-12 03:22:00,61.8,61.8,30.05,WNW,293,1.0,2.0,100,0.00,,---,0.00,VWS V14.01,2013-09-12 07:22:00,
2013-09-12 03:27:00,61.7,61.7,30.05,WNW,287,2.0,2.0,100,0.00,,---,0.00,VWS V14.01,2013-09-12 07:27:00,
2013-09-12 03:32:00,61.7,61.7,30.05,NW,308,2.0,3.0,100,0.00,,---,0.00,VWS V14.01,2013-09-12 07:32:00,
2013-09-12 03:37:00,61.7,61.7,30.05,WNW,295,2.0,3.0,100,0.00,,---,0.00,VWS V14.01,2013-09-12 07:37:00,
2013-09-12 03:42:00,61.7,61.7,30.05,WNW,295,2.0,3.0,100,0.00,,---,0.00,VWS V14.01,2013-09-12 07:42:00,
2013-09-12 03:47:00,61.8,61.8,30.05,West,266,2.0,3.0,100,0.00,,---,0.00,VWS V14.01,2013-09-12 07:47:00,
2013-09-12 03:52:00,62.0,62.0,30.05,WNW,286,1.0,2.0,100,0.00,,---,0.00,VWS V14.01,2013-09-12 07:52:00,
2013-09-12 03:57:00,62.0,62.0,30.05,WNW,293,1.0,3.0,100,0.00,,---,0.00,VWS V14.01,2013-09-12 07:57:00,
2013-09-12 04:01:00,62.0,62.0,30.04,WNW,285,2.0,3.0,100,0.00,,---,0.00,VWS V14.01,2013-09-12 08:01:00,
2013-09-12 04:06:00,62.0,62.0,30.04,NW,305,3.0,3.0,100,0.00,,---,0.00,VWS V14.01,2013-09-12 08:06:00,
2013-09-12 04:11:00,61.9,61.9,30.04,WNW,282,2.0,2.0,100,0.00,,---,0.00,VWS V14.01,2013-09-12 08:11:00,
2013-09-12 04:16:00,61.8,61.8,30.04,NW,306,2.0,3.0,100,0.00,,---,0.00,VWS V14.01,2013-09-12 08:16:00,
2013-09-12 04:21:00,61.8,61.8,30.04,NW,307,2.0,3.0,100,0.00,,---,0.00,VWS V14.01,2013-09-12 08:21:00,
2013-09-12 04:26:00,61.7,61.7,30.04,NW,314,1.0,3.0,100,0.00,,---,0.00,VWS V14.01,2013-09-12 08:26:00,
2013-09-12 04:31:00,61.5,61.5,30.04,NW,325,2.0,3.0,100,0.00,,---,0.00,VWS V14.01,2013-09-12 08:31:00,
2013-09-12 04:36:00,61.6,61.6,30.04,West,276,1.0,4.0,100,0.00,,---,0.00,VWS V14.01,2013-09-12 08:36:00,
2013-09-12 04:41:00,61.4,61.4,30.04,WNW,293,0.0,2.0,100,0.00,,---,0.00,VWS V14.01,2013-09-12 08:41:00,
2013-09-12 04:46:00,61.3,61.3,30.04,NW,305,2.0,2.0,100,0.00,,---,0.00,VWS V14.01,2013-09-12 08:46:00,
2013-09-12 04:51:00,61.1,61.1,30.04,NW,307,1.0,1.0,100,0.00,,---,0.00,VWS V14.01,2013-09-12 08:51:00,
2013-09-12 04:56:00,61.3,61.3,30.04,NW,307,1.0,1.0,100,0.00,,---,0.00,VWS V14.01,2013-09-12 08:56:00,
2013-09-12 05:01:00,61.2,61.2,30.03,NW,309,1.0,1.0,100,0.00,,---,0.00,VWS V14.01,2013-09-12 09:01:00,
2013-09-12 05:06:00,61.2,61.2,30.04,NW,308,1.0,2.0,100,0.00,,---,0.00,VWS V14.01,2013-09-12 09:06:00,
2013-09-12 05:11:00,61.1,61.1,30.04,NW,307,0.0,1.0,100,0.00,,---,0.00,VWS V14.01,2013-09-12 09:11:00,
2013-09-12 05:16:00,61.3,61.3,30.03,WNW,286,2.0,2.0,100,0.00,,---,0.00,VWS V14.01,2013-09-12 09:16:00,
2013-09-12 05:21:00,61.3,61.3,30.03,WNW,285,3.0,3.0,100,0.00,,---,0.00,VWS V14.01,2013-09-12 09:21:00,
2013-09-12 05:26:00,61.3,61.3,30.03,WNW,292,0.0,2.0,100,0.00,,---,0.00,VWS V14.01,2013-09-12 09:26:00,
2013-09-12 05:31:00,61.3,61.3,30.03,WNW,292,1.0,2.0,100,0.00,,---,0.00,VWS V14.01,2013-09-12 09:31:00,
2013-09-12 05:36:00,61.2,61.2,30.03,WNW,292,1.0,2.0,100,0.00,,---,0.00,VWS V14.01,2013-09-12 09:36:00,
2013-09-12 05:41:00,61.2,61.2,30.03,WNW,291,2.0,3.0,100,0.00,,---,0.00,VWS V14.01,2013-09-12 09:41:00,
2013-09-12 05:46:00,61.2,61.2,30.03,WNW,284,1.0,1.0,100,0.00,,---,0.00,VWS V14.01,2013-09-12 09:46:00,
2013-09-12 05:51:00,61.1,61.1,30.03,WNW,284,2.0,3.0,100,0.00,,---,0.00,VWS V14.01,2013-09-12 09:51:00,
2013-09-12 05:56:00,60.9,60.9,30.03,WNW,284,1.0,2.0,100,0.00,,---,0.00,VWS V14.01,2013-09-12 09:56:00,
2013-09-12 06:01:00,61.1,61.1,30.03,WNW,290,1.0,1.0,100,0.00,,---,0.00,VWS V14.01,2013-09-12 10:01:00,
2013-09-12 06:06:00,61.3,61.3,30.03,WNW,287,2.0,3.0,100,0.00,,---,0.00,VWS V14.01,2013-09-12 10:06:00,
2013-09-12 06:11:00,61.2,61.2,30.03,NW,313,2.0,2.0,100,0.00,,---,0.00,VWS V14.01,2013-09-12 10:11:00,
2013-09-12 06:16:00,61.2,61.2,30.03,WNW,291,2.0,2.0,100,0.00,,---,0.00,VWS V14.01,2013-09-12 10:16:00,
2013-09-12 06:21:00,61.2,61.2,30.03,WNW,297,3.0,3.0,100,0.00,,---,0.00,VWS V14.01,2013-09-12 10:21:00,
2013-09-12 06:26:00,61.3,61.3,30.03,WNW,289,3.0,3.0,100,0.00,,---,0.00,VWS V14.01,2013-09-12 10:26:00,
2013-09-12 06:31:00,61.2,61.2,30.03,WNW,300,2.0,2.0,100,0.00,,---,0.00,VWS V14.01,2013-09-12 10:31:00,
2013-09-12 06:36:00,61.1,61.1,30.03,WNW,290,1.0,2.0,100,0.00,,---,0.00,VWS V14.01,2013-09-12 10:36:00,
2013-09-12 06:41:00,60.9,60.9,30.03,WNW,297,1.0,3.0,100,0.00,,---,0.00,VWS V14.01,2013-09-12 10:41:00,
2013-09-12 06:46:00,60.8,60.8,30.03,NW,307,2.0,2.0,100,0.00,,---,0.00,VWS V14.01,2013-09-12 10:46:00,
2013-09-12 06:51:00,60.8,60.8,30.03,WNW,287,2.0,2.0,100,0.00,,---,0.00,VWS V14.01,2013-09-12 10:51:00,
2013-09-12 06:56:00,60.9,60.9,30.03,NW,312,2.0,2.0,100,0.00,,---,0.00,VWS V14.01,2013-09-12 10:56:00,
2013-09-12 07:01:00,60.9,60.9,30.03,West,279,3.0,3.0,100,0.00,,---,0.00,VWS V14.01,2013-09-12 11:01:00,
2013-09-12 07:06:00,60.8,60.8,30.03,North,355,2.0,3.0,100,0.00,,---,0.00,VWS V14.01,2013-09-12 11:06:00,
2013-09-12 07:11:00,60.8,60.8,30.03,WNW,297,2.0,2.0,100,0.00,,---,0.00,VWS V14.01,2013-09-12 11:11:00,
2013-09-12 07:16:00,60.8,60.8,30.03,West,270,3.0,3.0,100,0.00,,---,0.00,VWS V14.01,2013-09-12 11:16:00,
2013-09-12 07:21:00,60.8,60.8,30.04,WSW,245,3.0,3.0,100,0.00,,---,0.00,VWS V14.01,2013-09-12 11:21:00,
2013-09-12 07:26:00,60.7,60.7,30.04,West,278,2.0,3.0,100,0.00,,---,0.00,VWS V14.01,2013-09-12 11:26:00,
2013-09-12 07:31:00,60.7,60.7,30.03,WNW,284,2.0,2.0,100,0.00,,---,0.00,VWS V14.01,2013-09-12 11:31:00,
2013-09-12 07:36:00,60.8,60.8,30.03,WNW,297,2.0,5.0,100,0.00,,---,0.00,VWS V14.01,2013-09-12 11:36:00,
2013-09-12 07:41:00,60.8,60.8,30.03,NW,322,3.0,3.0,100,0.00,,---,0.00,VWS V14.01,2013-09-12 11:41:00,
2013-09-12 07:46:00,60.9,60.9,30.04,WNW,282,3.0,4.0,100,0.00,,---,0.00,VWS V14.01,2013-09-12 11:46:00,
2013-09-12 07:51:00,61.1,61.1,30.03,NW,307,3.0,3.0,100,0.01,,---,0.01,VWS V14.01,2013-09-12 11:51:00,
2013-09-12 07:56:00,61.1,61.1,30.04,NW,315,2.0,3.0,100,0.01,,---,0.01,VWS V14.01,2013-09-12 11:56:00,
2013-09-12 08:01:00,61.1,61.1,30.04,WNW,282,4.0,4.0,100,0.01,,---,0.01,VWS V14.01,2013-09-12 12:01:00,
2013-09-12 08:06:00,61.5,61.5,30.03,WNW,299,2.0,4.0,100,0.01,,---,0.01,VWS V14.01,2013-09-12 12:06:00,
2013-09-12 08:11:00,61.9,61.9,30.04,WSW,245,2.0,3.0,100,0.01,,---,0.01,VWS V14.01,2013-09-12 12:11:00,
2013-09-12 08:16:00,62.5,62.5,30.04,WNW,284,1.0,2.0,100,0.01,,---,0.01,VWS V14.01,2013-09-12 12:16:00,
2013-09-12 08:21:00,62.6,62.6,30.04,NW,324,2.0,3.0,100,0.01,,---,0.01,VWS V14.01,2013-09-12 12:21:00,
2013-09-12 08:26:00,62.8,62.8,30.04,West,277,1.0,3.0,100,0.01,,---,0.01,VWS V14.01,2013-09-12 12:26:00,
2013-09-12 08:31:00,63.5,63.5,30.04,West,269,2.0,3.0,100,0.01,,---,0.01,VWS V14.01,2013-09-12 12:31:00,
2013-09-12 08:36:00,63.5,63.5,30.04,NW,307,2.0,4.0,100,0.01,,---,0.01,VWS V14.01,2013-09-12 12:36:00,
2013-09-12 08:41:00,63.8,63.8,30.04,WNW,292,1.0,4.0,100,0.01,,---,0.01,VWS V14.01,2013-09-12 12:41:00,
2013-09-12 08:46:00,64.2,64.2,30.03,West,276,1.0,3.0,100,0.01,,---,0.01,VWS V14.01,2013-09-12 12:46:00,
2013-09-12 08:51:00,64.8,64.8,30.03,WNW,296,1.0,2.0,100,0.01,,---,0.01,VWS V14.01,2013-09-12 12:51:00,
2013-09-12 08:56:00,65.0,65.0,30.03,NW,308,2.0,3.0,100,0.00,,---,0.01,VWS V14.01,2013-09-12 12:56:00,
2013-09-12 09:01:00,65.6,65.6,30.03,NNW,339,2.0,3.0,100,0.00,,---,0.01,VWS V14.01,2013-09-12 13:01:00,
2013-09-12 09:06:00,65.5,65.5,30.03,WNW,286,2.0,3.0,100,0.00,,---,0.01,VWS V14.01,2013-09-12 13:06:00,
2013-09-12 09:11:00,66.0,66.0,30.03,WSW,247,1.0,3.0,100,0.00,,---,0.01,VWS V14.01,2013-09-12 13:11:00,
2013-09-12 09:16:00,67.0,67.0,30.03,West,278,0.0,2.0,100,0.00,,---,0.01,VWS V14.01,2013-09-12 13:16:00,
2013-09-12 09:21:00,67.1,66.5,30.03,NW,305,0.0,3.0,98,0.00,,---,0.01,VWS V14.01,2013-09-12 13:21:00,
2013-09-12 09:26:00,67.5,66.9,30.03,WNW,301,0.0,3.0,98,0.00,,---,0.01,VWS V14.01,2013-09-12 13:26:00,
2013-09-12 09:31:00,67.6,66.7,30.03,WNW,299,2.0,2.0,97,0.00,,---,0.01,VWS V14.01,2013-09-12 13:31:00,
2013-09-12 09:36:00,68.4,67.5,30.03,WSW,257,3.0,3.0,97,0.00,,---,0.01,VWS V14.01,2013-09-12 13:36:00,
2013-09-12 09:41:00,68.7,67.5,30.03,West,264,3.0,4.0,96,0.00,,---,0.01,VWS V14.01,2013-09-12 13:41:00,
2013-09-12 09:46:00,68.7,67.2,30.03,WNW,301,2.0,2.0,95,0.00,,---,0.01,VWS V14.01,2013-09-12 13:46:00,
2013-09-12 09:51:00,69.1,67.3,30.03,WNW,283,0.0,3.0,94,0.00,,---,0.01,VWS V14.01,2013-09-12 13:51:00,
2013-09-12 09:56:00,69.6,68.4,30.03,West,276,2.0,2.0,96,0.00,,---,0.01,VWS V14.01,2013-09-12 13:56:00,
2013-09-12 10:01:00,70.2,68.1,30.03,NW,320,1.0,3.0,93,0.00,,---,0.01,VWS V14.01,2013-09-12 14:01:00,
2013-09-12 10:06:00,70.1,67.7,30.03,West,281,1.0,2.0,92,0.00,,---,0.01,VWS V14.01,2013-09-12 14:06:00,
2013-09-12 10:11:00,70.3,67.6,30.03,WNW,297,1.0,2.0,91,0.00,,---,0.01,VWS V14.01,2013-09-12 14:11:00,
2013-09-12 10:16:00,71.1,68.0,30.03,WNW,283,0.0,1.0,90,0.00,,---,0.01,VWS V14.01,2013-09-12 14:16:00,
2013-09-12 10:21:00,71.2,68.8,30.02,SW,224,1.0,2.0,92,0.00,,---,0.01,VWS V14.01,2013-09-12 14:21:00,
2013-09-12 10:26:00,71.3,68.5,30.02,NW,309,2.0,3.0,91,0.00,,---,0.01,VWS V14.01,2013-09-12 14:26:00,
2013-09-12 10:31:00,71.7,68.3,30.02,West,259,2.0,3.0,89,0.00,,---,0.01,VWS V14.01,2013-09-12 14:31:00,
2013-09-12 10:36:00,72.4,67.6,30.02,NW,307,1.0,2.0,85,0.00,,---,0.01,VWS V14.01,2013-09-12 14:36:00,
2013-09-12 10:41:00,72.4,67.6,30.02,NW,313,2.0,3.0,85,0.00,,---,0.01,VWS V14.01,2013-09-12 14:41:00,
2013-09-12 10:46:00,72.1,67.7,30.02,West,268,0.0,2.0,86,0.00,,---,0.01,VWS V14.01,2013-09-12 14:46:00,
2013-09-12 10:51:00,72.6,67.8,30.02,WNW,285,1.0,2.0,85,0.00,,---,0.01,VWS V14.01,2013-09-12 14:51:00,
2013-09-12 10:56:00,72.6,67.5,30.02,WNW,303,0.0,3.0,84,0.00,,---,0.01,VWS V14.01,2013-09-12 14:56:00,
2013-09-12 11:01:00,72.9,68.8,30.02,SW,214,1.0,2.0,87,0.00,,---,0.01,VWS V14.01,2013-09-12 15:01:00,
2013-09-12 11:06:00,72.7,67.6,30.02,WSW,257,2.0,3.0,84,0.00,,---,0.01,VWS V14.01,2013-09-12 15:06:00,
2013-09-12 11:11:00,72.7,67.6,30.02,WNW,287,0.0,3.0,84,0.00,,---,0.01,VWS V14.01,2013-09-12 15:11:00,
2013-09-12 11:16:00,73.2,68.4,30.02,WNW,295,2.0,3.0,85,0.00,,---,0.01,VWS V14.01,2013-09-12 15:16:00,
2013-09-12 11:21:00,73.0,67.9,30.02,SW,232,0.0,3.0,84,0.00,,---,0.01,VWS V14.01,2013-09-12 15:21:00,
2013-09-12 11:26:00,73.5,68.7,30.02,West,262,1.0,2.0,85,0.00,,---,0.01,VWS V14.01,2013-09-12 15:26:00,
2013-09-12 11:31:00,73.4,66.9,30.01,West,274,1.0,5.0,80,0.00,,---,0.01,VWS V14.01,2013-09-12 15:31:00,
2013-09-12 11:36:00,74.1,67.5,30.02,WNW,291,1.0,3.0,80,0.00,,---,0.01,VWS V14.01,2013-09-12 15:36:00,
2013-09-12 11:41:00,73.5,67.0,30.01,West,273,1.0,3.0,80,0.00,,---,0.01,VWS V14.01,2013-09-12 15:41:00,
2013-09-12 11:46:00,73.7,68.9,30.01,West,271,0.0,3.0,85,0.00,,---,0.01,VWS V14.01,2013-09-12 15:46:00,
2013-09-12 11:51:00,73.9,68.8,30.01,West,262,1.0,1.0,84,0.00,,---,0.01,VWS V14.01,2013-09-12 15:51:00,
2013-09-12 11:56:00,74.3,67.4,30.01,WSW,244,1.0,3.0,79,0.00,,---,0.01,VWS V14.01,2013-09-12 15:56:00,
2013-09-12 12:01:00,74.4,67.8,30.01,WSW,241,2.0,3.0,80,0.00,,---,0.01,VWS V14.01,2013-09-12 16:01:00,
2013-09-12 12:06:00,75.1,69.2,30.01,West,272,0.0,2.0,82,0.00,,---,0.01,VWS V14.01,2013-09-12 16:06:00,
2013-09-12 12:11:00,75.3,69.8,30.01,WNW,299,2.0,3.0,83,0.00,,---,0.01,VWS V14.01,2013-09-12 16:11:00,
2013-09-12 12:16:00,75.8,69.2,30.01,West,264,1.0,2.0,80,0.00,,---,0.01,VWS V14.01,2013-09-12 16:16:00,
2013-09-12 12:21:00,75.7,69.8,30.00,WSW,255,0.0,2.0,82,0.00,,---,0.01,VWS V14.01,2013-09-12 16:21:00,
2013-09-12 12:26:00,75.0,67.7,30.00,WNW,299,2.0,3.0,78,0.00,,---,0.01,VWS V14.01,2013-09-12 16:26:00,
2013-09-12 12:31:00,75.6,69.4,30.00,WSW,248,2.0,3.0,81,0.00,,---,0.01,VWS V14.01,2013-09-12 16:31:00,
2013-09-12 12:36:00,75.5,67.4,30.00,West,280,0.0,2.0,76,0.00,,---,0.01,VWS V14.01,2013-09-12 16:36:00,
2013-09-12 12:41:00,74.9,67.9,30.00,West,280,1.0,2.0,79,0.00,,---,0.01,VWS V14.01,2013-09-12 16:41:00,
2013-09-12 12:46:00,74.9,69.0,29.99,SSE,149,1.0,1.0,82,0.00,,---,0.01,VWS V14.01,2013-09-12 16:46:00,
2013-09-12 12:51:00,75.4,69.2,29.99,West,268,1.0,1.0,81,0.00,,---,0.01,VWS V14.01,2013-09-12 16:51:00,
2013-09-12 12:56:00,74.1,67.2,29.99,West,276,0.0,1.0,79,0.00,,---,0.01,VWS V14.01,2013-09-12 16:56:00,
2013-09-12 13:01:00,72.3,66.8,29.99,West,274,1.0,2.0,83,0.00,,---,0.01,VWS V14.01,2013-09-12 17:01:00,
2013-09-12 13:06:00,70.7,66.3,29.99,West,259,2.0,3.0,86,0.00,,---,0.01,VWS V14.01,2013-09-12 17:06:00,
2013-09-12 13:11:00,69.7,66.0,29.99,WSW,255,2.0,2.0,88,0.00,,---,0.01,VWS V14.01,2013-09-12 17:11:00,
2013-09-12 13:16:00,69.5,65.8,30.00,West,266,3.0,6.0,88,0.00,,---,0.01,VWS V14.01,2013-09-12 17:16:00,
2013-09-12 13:21:00,68.5,65.5,30.00,NW,306,1.0,4.0,90,0.00,,---,0.01,VWS V14.01,2013-09-12 17:21:00,
2013-09-12 13:26:00,67.4,64.7,30.00,West,269,0.0,3.0,91,0.00,,---,0.01,VWS V14.01,2013-09-12 17:26:00,
2013-09-12 13:31:00,67.0,64.9,29.99,WNW,299,1.0,3.0,93,0.00,,---,0.01,VWS V14.01,2013-09-12 17:31:00,
2013-09-12 13:36:00,67.4,65.9,29.99,WNW,282,0.0,1.0,95,0.00,,---,0.01,VWS V14.01,2013-09-12 17:36:00,
2013-09-12 13:41:00,67.6,65.5,29.99,WNW,283,1.0,3.0,93,0.00,,---,0.01,VWS V14.01,2013-09-12 17:41:00,
2013-09-12 13:46:00,68.3,65.9,29.99,WNW,288,2.0,4.0,92,0.00,,---,0.01,VWS V14.01,2013-09-12 17:46:00,
2013-09-12 13:51:00,69.8,66.7,29.98,NW,318,1.0,3.0,90,0.00,,---,0.01,VWS V14.01,2013-09-12 17:51:00,
2013-09-12 13:56:00,70.4,66.7,29.97,West,264,1.0,2.0,88,0.00,,---,0.01,VWS V14.01,2013-09-12 17:56:00,
2013-09-12 14:01:00,72.2,68.4,29.96,WSW,254,2.0,4.0,88,0.00,,---,0.01,VWS V14.01,2013-09-12 18:01:00,
2013-09-12 14:06:00,71.6,66.5,29.96,NW,311,1.0,3.0,84,0.00,,---,0.01,VWS V14.01,2013-09-12 18:06:00,
2013-09-12 14:11:00,70.7,66.0,29.96,SW,228,2.0,6.0,85,0.00,,---,0.01,VWS V14.01,2013-09-12 18:11:00,
2013-09-12 14:16:00,69.9,65.5,29.97,WNW,301,2.0,3.0,86,0.00,,---,0.01,VWS V14.01,2013-09-12 18:16:00,
2013-09-12 14:21:00,69.8,66.4,29.98,West,280,3.0,4.0,89,0.00,,---,0.01,VWS V14.01,2013-09-12 18:21:00,
2013-09-12 14:26:00,68.9,64.6,29.97,WNW,291,1.0,3.0,86,0.00,,---,0.01,VWS V14.01,2013-09-12 18:26:00,
2013-09-12 14:31:00,68.2,64.8,29.98,West,278,1.0,3.0,89,0.00,,---,0.01,VWS V14.01,2013-09-12 18:31:00,
2013-09-12 14:36:00,67.7,64.0,29.97,ESE,120,1.0,1.0,88,0.00,,---,0.01,VWS V14.01,2013-09-12 18:36:00,
2013-09-12 14:41:00,67.4,64.7,29.96,WNW,284,2.0,3.0,91,0.00,,---,0.01,VWS V14.01,2013-09-12 18:41:00,
2013-09-12 14:46:00,66.8,64.1,29.95,SW,214,4.0,4.0,91,0.00,,---,0.01,VWS V14.01,2013-09-12 18:46:00,
2013-09-12 14:51:00,66.2,64.1,29.95,WNW,293,0.0,1.0,93,0.00,,---,0.01,VWS V14.01,2013-09-12 18:51:00,
2013-09-12 14:56:00,65.9,64.4,29.95,WNW,293,1.0,2.0,95,0.00,,---,0.01,VWS V14.01,2013-09-12 18:56:00,
2013-09-12 15:01:00,65.9,64.7,29.95,SSW,202,2.0,3.0,96,0.00,,---,0.01,VWS V14.01,2013-09-12 19:01:00,
2013-09-12 15:06:00,66.2,65.0,29.94,WNW,296,4.0,4.0,96,0.00,,---,0.01,VWS V14.01,2013-09-12 19:06:00,
2013-09-12 15:11:00,66.8,65.0,29.94,WNW,291,2.0,2.0,94,0.00,,---,0.01,VWS V14.01,2013-09-12 19:11:00,
2013-09-12 15:16:00,67.3,65.2,29.94,West,273,3.0,3.0,93,0.00,,---,0.01,VWS V14.01,2013-09-12 19:16:00,
2013-09-12 15:21:00,67.7,65.9,29.94,WNW,291,1.0,1.0,94,0.00,,---,0.01,VWS V14.01,2013-09-12 19:21:00,
2013-09-12 15:26:00,67.7,65.3,29.94,West,262,1.0,4.0,92,0.00,,---,0.01,VWS V14.01,2013-09-12 19:26:00,
2013-09-12 15:31:00,67.4,65.6,29.94,WNW,295,1.0,2.0,94,0.00,,---,0.01,VWS V14.01,2013-09-12 19:31:00,
2013-09-12 15:36:00,67.0,64.6,29.94,West,261,2.0,3.0,92,0.00,,---,0.01,VWS V14.01,2013-09-12 19:36:00,
2013-09-12 15:41:00,66.9,65.1,29.93,South,180,1.0,3.0,94,0.00,,---,0.01,VWS V14.01,2013-09-12 19:41:00,
2013-09-12 15:46:00,66.7,64.6,29.93,North,1,2.0,4.0,93,0.00,,---,0.01,VWS V14.01,2013-09-12 19:46:00,
2013-09-12 15:51:00,66.9,64.8,29.92,WNW,303,2.0,3.0,93,0.00,,---,0.01,VWS V14.01,2013-09-12 19:51:00,
2013-09-12 15:56:00,67.6,65.2,29.93,SW,236,2.0,3.0,92,0.00,,---,0.01,VWS V14.01,2013-09-12 19:56:00,
2013-09-12 16:01:00,68.4,65.7,29.93,WSW,255,2.0,5.0,91,0.00,,---,0.01,VWS V14.01,2013-09-12 20:01:00,
2013-09-12 16:06:00,68.4,65.7,29.92,West,271,3.0,5.0,91,0.00,,---,0.01,VWS V14.01,2013-09-12 20:06:00,
2013-09-12 16:11:00,68.4,65.0,29.92,West,269,0.0,2.0,89,0.00,,---,0.01,VWS V14.01,2013-09-12 20:11:00,
2013-09-12 16:16:00,68.2,65.8,29.92,WNW,295,1.0,2.0,92,0.00,,---,0.01,VWS V14.01,2013-09-12 20:16:00,
2013-09-12 16:21:00,68.2,65.8,29.92,WNW,295,2.0,2.0,92,0.00,,---,0.01,VWS V14.01,2013-09-12 20:21:00,
2013-09-12 16:26:00,68.5,66.1,29.92,WNW,288,1.0,2.0,92,0.00,,---,0.01,VWS V14.01,2013-09-12 20:26:00,
2013-09-12 16:31:00,68.8,66.1,29.91,West,279,1.0,2.0,91,0.00,,---,0.01,VWS V14.01,2013-09-12 20:31:00,
2013-09-12 16:36:00,69.5,66.4,29.91,West,267,3.0,5.0,90,0.00,,---,0.01,VWS V14.01,2013-09-12 20:36:00,
2013-09-12 16:41:00,70.0,66.9,29.91,West,280,2.0,2.0,90,0.00,,---,0.01,VWS V14.01,2013-09-12 20:41:00,
2013-09-12 16:46:00,69.9,67.2,29.91,WNW,297,1.0,3.0,91,0.00,,---,0.01,VWS V14.01,2013-09-12 20:46:00,
2013-09-12 16:51:00,69.6,66.9,29.91,WNW,296,0.0,2.0,91,0.00,,---,0.01,VWS V14.01,2013-09-12 20:51:00,
2013-09-12 16:56:00,69.9,67.2,29.90,West,272,1.0,2.0,91,0.00,,---,0.01,VWS V14.01,2013-09-12 20:56:00,
2013-09-12 17:01:00,69.5,66.1,29.90,WNW,292,3.0,4.0,89,0.00,,---,0.01,VWS V14.01,2013-09-12 21:01:00,
2013-09-12 17:06:00,68.5,65.8,29.90,West,277,1.0,2.0,91,0.00,,---,0.01,VWS V14.01,2013-09-12 21:06:00,
2013-09-12 17:11:00,68.0,65.6,29.90,WNW,285,2.0,2.0,92,0.00,,---,0.01,VWS V14.01,2013-09-12 21:11:00,
2013-09-12 17:16:00,67.7,65.6,29.89,West,278,2.0,2.0,93,0.00,,---,0.01,VWS V14.01,2013-09-12 21:16:00,
2013-09-12 17:21:00,67.4,64.7,29.89,WSW,258,0.0,3.0,91,0.00,,---,0.01,VWS V14.01,2013-09-12 21:21:00,
2013-09-12 17:26:00,67.1,64.4,29.89,WNW,295,1.0,2.0,91,0.00,,---,0.01,VWS V14.01,2013-09-12 21:26:00,
2013-09-12 17:31:00,66.8,64.1,29.89,WNW,297,2.0,3.0,91,0.00,,---,0.01,VWS V14.01,2013-09-12 21:31:00,
2013-09-12 17:36:00,66.3,63.6,29.88,WNW,289,1.0,2.0,91,0.00,,---,0.01,VWS V14.01,2013-09-12 21:36:00,
2013-09-12 17:41:00,66.0,63.3,29.88,South,191,7.0,7.0,91,0.00,,---,0.01,VWS V14.01,2013-09-12 21:41:00,
2013-09-12 17:46:00,65.7,62.7,29.88,West,276,1.0,4.0,90,0.00,,---,0.01,VWS V14.01,2013-09-12 21:46:00,
2013-09-12 17:51:00,65.3,62.0,29.88,NW,309,2.0,3.0,89,0.00,,---,0.01,VWS V14.01,2013-09-12 21:51:00,
2013-09-12 17:56:00,65.0,62.3,29.88,West,272,2.0,3.0,91,0.00,,---,0.01,VWS V14.01,2013-09-12 21:56:00,
2013-09-12 18:01:00,64.9,62.5,29.88,West,274,2.0,2.0,92,0.00,,---,0.01,VWS V14.01,2013-09-12 22:01:00,
2013-09-12 18:06:00,64.8,62.4,29.88,NNW,327,3.0,5.0,92,0.00,,---,0.01,VWS V14.01,2013-09-12 22:06:00,
2013-09-12 18:11:00,64.9,62.5,29.88,WSW,241,1.0,4.0,92,0.00,,---,0.01,VWS V14.01,2013-09-12 22:11:00,
2013-09-12 18:16:00,64.8,62.4,29.88,WNW,296,3.0,3.0,92,0.00,,---,0.01,VWS V14.01,2013-09-12 22:16:00,
2013-09-12 18:21:00,64.8,62.7,29.88,WSW,255,2.0,3.0,93,0.00,,---,0.01,VWS V14.01,2013-09-12 22:21:00,
2013-09-12 18:26:00,64.8,62.7,29.88,WNW,295,2.0,2.0,93,0.00,,---,0.01,VWS V14.01,2013-09-12 22:26:00,
2013-09-12 18:31:00,64.7,62.6,29.88,WSW,249,1.0,3.0,93,0.00,,---,0.01,VWS V14.01,2013-09-12 22:31:00,
2013-09-12 18:36:00,64.7,62.6,29.88,West,259,3.0,3.0,93,0.00,,---,0.01,VWS V14.01,2013-09-12 22:36:00,
2013-09-12 18:41:00,65.0,62.9,29.88,WNW,302,4.0,5.0,93,0.00,,---,0.01,VWS V14.01,2013-09-12 22:41:00,
2013-09-12 18:46:00,65.3,63.5,29.88,NW,316,3.0,4.0,94,0.00,,---,0.01,VWS V14.01,2013-09-12 22:46:00,
2013-09-12 18:51:00,65.3,63.5,29.88,West,274,3.0,5.0,94,0.00,,---,0.01,VWS V14.01,2013-09-12 22:51:00,
2013-09-12 18:56:00,65.4,63.6,29.88,WNW,292,2.0,3.0,94,0.00,,---,0.01,VWS V14.01,2013-09-12 22:56:00,
2013-09-12 19:01:00,65.4,63.6,29.88,West,266,3.0,5.0,94,0.00,,---,0.01,VWS V14.01,2013-09-12 23:01:00,
2013-09-12 19:06:00,65.4,63.6,29.88,WNW,292,3.0,3.0,94,0.00,,---,0.01,VWS V14.01,2013-09-12 23:06:00,
2013-09-12 19:11:00,65.2,63.4,29.88,WNW,285,2.0,3.0,94,0.00,,---,0.01,VWS V14.01,2013-09-12 23:11:00,
2013-09-12 19:16:00,65.0,63.2,29.88,WNW,300,2.0,2.0,94,0.00,,---,0.01,VWS V14.01,2013-09-12 23:16:00,
2013-09-12 19:21:00,64.7,63.2,29.88,West,265,0.0,3.0,95,0.00,,---,0.01,VWS V14.01,2013-09-12 23:21:00,
2013-09-12 19:26:00,64.4,63.2,29.88,WNW,289,3.0,3.0,96,0.00,,---,0.01,VWS V14.01,2013-09-12 23:26:00,
2013-09-12 19:31:00,64.3,63.1,29.88,NW,305,2.0,2.0,96,0.00,,---,0.01,VWS V14.01,2013-09-12 23:31:00,
2013-09-12 19:36:00,64.0,62.8,29.88,WNW,302,1.0,3.0,96,0.00,,---,0.01,VWS V14.01,2013-09-12 23:36:00,
2013-09-12 19:41:00,63.9,63.0,29.88,West,276,1.0,6.0,97,0.00,,---,0.01,VWS V14.01,2013-09-12 23:41:00,
2013-09-12 19:46:00,63.8,63.2,29.88,SW,230,6.0,6.0,98,0.00,,---,0.01,VWS V14.01,2013-09-12 23:46:00,
2013-09-12 19:51:00,63.8,63.2,29.88,West,271,1.0,2.0,98,0.00,,---,0.01,VWS V14.01,2013-09-12 23:51:00,
2013-09-12 19:56:00,63.7,63.1,29.88,WNW,298,2.0,3.0,98,0.00,,---,0.01,VWS V14.01,2013-09-12 23:56:00,
2013-09-12 20:01:00,63.6,63.3,29.88,WSW,247,3.0,4.0,99,0.00,,---,0.01,VWS V14.01,2013-09-13 00:01:00,
2013-09-12 20:06:00,63.5,63.2,29.88,NW,307,2.0,3.0,99,0.00,,---,0.01,VWS V14.01,2013-09-13 00:06:00,
2013-09-12 20:11:00,63.4,63.1,29.88,WNW,293,2.0,6.0,99,0.00,,---,0.01,VWS V14.01,2013-09-13 00:11:00,
2013-09-12 20:16:00,63.3,63.0,29.88,NNW,338,3.0,4.0,99,0.00,,---,0.01,VWS V14.01,2013-09-13 00:16:00,
2013-09-12 20:21:00,63.2,62.9,29.88,NW,315,2.0,3.0,99,0.00,,---,0.01,VWS V14.01,2013-09-13 00:21:00,
2013-09-12 20:26:00,63.1,63.1,29.89,West,280,3.0,3.0,100,0.00,,---,0.01,VWS V14.01,2013-09-13 00:26:00,
2013-09-12 20:31:00,63.0,63.0,29.89,WNW,300,2.0,3.0,100,0.00,,---,0.01,VWS V14.01,2013-09-13 00:31:00,
2013-09-12 20:36:00,63.0,63.0,29.89,WNW,299,1.0,3.0,100,0.00,,---,0.01,VWS V14.01,2013-09-13 00:36:00,
2013-09-12 20:41:00,63.0,63.0,29.89,NW,305,1.0,2.0,100,0.00,,---,0.01,VWS V14.01,2013-09-13 00:41:00,
2013-09-12 20:46:00,63.0,63.0,29.90,NW,324,3.0,3.0,100,0.00,,---,0.01,VWS V14.01,2013-09-13 00:46:00,
2013-09-12 20:51:00,63.0,63.0,29.90,WNW,291,1.0,3.0,100,0.00,,---,0.01,VWS V14.01,2013-09-13 00:51:00,
2013-09-12 20:56:00,63.0,63.0,29.91,NW,307,1.0,3.0,100,0.00,,---,0.01,VWS V14.01,2013-09-13 00:56:00,
2013-09-12 21:01:00,62.8,62.8,29.91,WNW,292,3.0,5.0,100,0.00,,---,0.01,VWS V14.01,2013-09-13 01:01:00,
2013-09-12 21:06:00,62.7,62.7,29.91,WNW,285,2.0,3.0,100,0.00,,---,0.01,VWS V14.01,2013-09-13 01:06:00,
2013-09-12 21:10:00,62.6,62.6,29.91,NNW,338,3.0,3.0,100,0.00,,---,0.01,VWS V14.01,2013-09-13 01:10:00,